GFSNE_925_thetae_273.txt.gz
Theta_e
294 295 296 296 297 297 296 296 295 296 299 298 298 298 300 300 302 302 303 303 304 305 302 303 303 306 309 312 314 316 316 314 314 314 315 316 316 315
294 294 294 295 296 296 296 296 296 295 295 297 297 297 296 299 300 300 302 301 301 304 303 301 303 307 308 309 310 311 311 310 310 311 308 310 311 312
292 294 295 295 295 297 297 296 296 296 296 296 296 296 296 296 298 300 300 300 300 301 304 303 302 304 306 306 306 305 303 303 303 304 301 299 302 303
292 293 294 294 294 296 296 297 297 296 296 294 295 296 296 296 296 298 299 300 299 299 301 302 303 302 304 305 303 302 301 299 298 298 298 297 297 299
290 292 293 293 295 296 296 297 297 296 296 296 296 295 295 296 296 297 297 298 300 300 299 299 302 303 302 304 304 301 300 298 298 297 296 295 295 295
290 291 294 293 294 296 295 296 297 297 297 296 296 294 294 294 295 296 296 297 297 298 299 298 299 301 303 302 302 302 300 299 297 295 295 295 295 295
290 290 292 293 293 294 296 295 296 296 296 297 296 295 295 294 294 293 294 295 296 296 297 298 298 298 300 302 302 302 302 301 299 297 296 296 296 296
290 291 292 292 292 291 293 294 296 295 294 295 294 295 294 294 293 294 293 294 290 296 296 297 297 297 298 299 302 302 301 301 301 300 299 298 297 297
291 291 292 293 293 290 291 290 291 293 295 292 292 293 293 293 293 292 292 292 293 294 295 295 296 296 297 298 298 301 302 301 301 301 300 300 299 299
291 291 292 294 295 293 292 291 290 290 291 291 291 291 291 293 291 291 291 290 290 293 294 293 295 295 295 295 297 297 297 298 299 300 300 300 300 301
291 291 292 293 295 294 292 291 291 290 290 290 291 292 293 292 292 291 289 289 290 291 293 293 294 294 294 294 294 294 295 295 296 296 298 300 300 300
291 291 292 293 293 294 293 293 292 291 290 289 289 289 289 289 290 289 288 288 289 291 292 292 291 291 290 292 292 293 293 293 294 294 296 297 298 299
290 291 291 293 293 292 293 292 292 291 289 288 288 289 289 289 289 289 288 287 287 288 289 290 291 290 291 291 292 291 291 291 291 292 292 293 295 296
290 291 291 292 292 291 291 292 291 290 288 287 288 288 287 287 288 288 289 289 288 287 288 288 288 288 288 289 289 289 289 290 290 291 291 291 291 292
289 290 290 290 289 289 290 290 289 289 288 288 288 288 288 288 288 288 288 289 289 289 289 289 287 287 287 287 288 288 289 289 289 290 290 290 290 290
288 288 288 288 288 288 289 289 289 288 288 287 288 288 289 289 289 288 287 288 288 288 289 289 289 288 288 288 287 287 288 287 288 288 289 289 289 288
288 288 288 287 287 287 287 288 288 288 288 288 287 287 288 289 289 289 289 288 288 288 288 289 290 289 288 288 288 288 288 288 288 287 287 287 288 288
287 287 287 287 287 287 286 286 287 287 287 287 287 287 287 287 288 290 290 290 289 289 289 289 289 288 288 289 289 288 288 288 288 288 287 287 287 287
288 287 287 287 287 287 286 286 285 286 286 286 286 287 287 288 288 288 289 289 290 290 291 290 290 290 289 290 290 290 289 288 288 287 287 286 286 287
288 287 287 287 287 286 286 286 286 285 286 286 286 286 287 287 287 287 287 287 288 289 290 290 289 289 290 290 290 289 290 289 289 289 288 288 287 287
288 288 288 287 287 287 286 285 285 285 286 286 287 287 287 287 287 287 287 287 288 287 287 288 288 289 289 289 289 290 289 289 289 290 289 289 288 287
288 288 288 287 287 287 287 286 285 285 286 286 286 286 287 287 287 287 287 286 286 286 286 287 287 288 288 288 289 289 288 289 289 289 289 290 290 289
287 287 287 287 287 287 287 286 286 286 286 286 286 286 286 286 287 286 286 286 285 286 286 286 287 288 288 288 289 288 288 288 288 288 288 288 289 289

GFSNE_925_thetae_276.txt.gz
Theta_e
293 293 294 294 296 296 296 296 295 296 298 297 297 297 297 299 300 302 302 304 305 305 303 303 302 302 307 312 314 315 316 318 318 318 316 317 317 317
293 294 294 294 295 296 295 296 296 295 295 296 296 296 297 297 299 300 300 300 301 304 304 302 301 303 307 309 311 312 313 313 312 312 311 308 309 312
291 293 293 294 294 295 296 296 296 296 296 295 295 296 296 297 297 299 301 300 300 300 303 304 302 302 306 307 307 309 308 308 306 303 304 303 306 302
290 293 293 294 295 295 296 296 297 296 296 295 295 295 295 295 295 296 298 299 300 300 300 301 302 303 302 305 305 304 303 304 305 303 302 301 302 302
290 291 293 293 293 295 296 297 297 296 296 296 296 295 294 295 295 295 296 297 298 299 300 299 299 302 302 303 304 303 301 301 301 300 298 297 297 297
290 291 291 293 293 295 295 295 296 296 296 296 296 294 294 294 294 294 294 294 295 296 297 299 299 298 300 303 303 302 302 300 299 298 296 296 295 295
290 291 292 294 294 294 293 294 295 295 296 296 296 295 295 294 293 291 291 293 293 294 295 296 297 297 298 299 302 303 302 302 300 299 297 296 295 296
290 291 292 293 294 292 293 293 294 296 294 293 293 294 293 293 292 293 291 291 292 293 293 294 295 296 296 297 299 302 303 302 302 301 300 299 297 297
291 291 292 293 295 294 292 291 290 291 294 292 291 291 292 292 292 291 290 291 291 291 291 293 293 294 296 296 297 298 300 302 302 301 301 301 300 301
291 291 292 293 294 294 293 292 291 290 290 291 291 290 291 292 292 291 290 289 289 290 290 291 293 293 295 295 295 295 296 297 298 300 301 301 301 301
290 291 292 293 294 295 293 292 292 291 290 290 290 290 291 293 292 291 290 288 289 290 290 291 292 292 293 293 294 294 294 294 294 296 297 298 299 300
290 290 291 293 294 293 293 292 292 291 289 289 289 289 289 289 289 290 289 287 287 288 291 291 291 291 291 292 292 292 292 293 292 292 293 295 297 298
289 290 290 292 293 293 293 292 292 291 289 287 287 287 288 288 288 288 288 286 287 287 288 288 288 289 289 289 290 290 290 290 290 290 290 291 293 295
289 289 290 291 291 291 291 292 292 289 288 288 288 288 288 287 287 287 288 288 288 287 287 287 287 287 287 287 287 288 288 288 288 289 289 289 290 292
288 289 289 289 288 288 289 290 289 288 288 288 287 288 289 288 288 288 288 288 288 288 288 288 287 287 287 287 287 287 288 288 288 288 288 288 289 290
288 288 287 287 287 287 287 287 288 288 288 288 287 287 287 288 289 289 289 288 288 288 289 289 289 288 287 287 287 288 288 287 288 288 287 287 288 288
288 287 287 287 287 287 286 286 286 286 287 287 287 287 287 287 288 289 289 289 289 289 289 290 290 289 289 288 287 287 288 288 288 288 287 287 287 287
288 287 287 287 287 286 286 286 286 285 286 286 286 286 287 287 287 288 288 289 289 289 289 290 290 289 289 289 289 289 288 288 288 288 288 288 288 287
288 288 287 287 287 286 286 285 285 285 285 286 286 286 286 286 286 287 287 287 287 288 288 288 289 289 289 290 289 290 289 289 289 289 288 288 287 287
288 287 287 287 287 287 287 286 285 285 285 285 286 286 286 286 287 287 287 286 286 287 287 287 287 288 288 289 289 289 289 289 289 289 289 288 289 288
287 287 287 287 287 287 287 286 286 286 286 286 286 286 286 285 286 286 286 286 287 286 285 286 286 287 288 288 288 288 289 289 288 289 289 289 289 289
287 287 286 287 287 287 287 286 286 286 286 286 286 285 285 285 285 286 286 285 285 285 285 286 287 287 287 287 288 288 288 288 288 288 288 289 289 290
286 286 286 287 287 286 287 286 286 286 286 285 285 285 285 285 285 285 286 285 285 285 285 285 286 287 287 287 288 288 287 287 287 287 288 287 287 288

GFSNE_925_thetae_279.txt.gz
Theta_e
293 293 294 295 295 296 296 296 296 298 298 295 296 297 297 299 301 301 304 308 308 305 304 303 302 302 307 310 313 314 315 315 316 320 321 321 320 320
291 292 293 293 295 295 296 296 297 296 297 296 296 295 296 297 298 300 300 301 304 306 304 303 302 301 306 307 310 311 313 315 316 315 315 315 315 316
291 293 293 293 294 295 295 296 296 296 297 295 295 295 296 296 297 298 299 301 300 302 303 303 302 301 303 306 307 309 309 309 308 305 303 306 308 305
290 291 292 293 293 295 295 296 297 296 295 296 295 295 295 295 295 296 297 298 299 300 300 300 301 302 302 305 306 305 304 306 307 306 306 306 304 306
290 291 292 293 293 295 295 295 296 296 296 295 296 295 295 295 295 295 295 296 297 297 299 300 299 299 302 302 304 304 303 302 303 304 302 303 304 304
290 291 291 293 294 294 293 294 296 296 296 295 295 294 294 294 294 293 294 292 294 294 295 296 297 299 299 300 303 303 303 302 300 299 298 297 297 298
291 291 292 294 296 294 294 294 293 295 294 296 296 295 295 294 293 292 293 292 292 293 293 295 296 297 298 298 298 302 303 302 302 300 298 297 296 296
290 291 292 293 294 294 294 294 293 294 293 293 293 293 293 292 292 292 291 292 292 291 291 291 293 294 295 296 297 298 300 303 302 302 301 300 298 297
290 291 291 293 294 295 292 292 291 291 292 292 291 290 290 291 291 292 290 290 290 290 290 291 292 293 294 295 295 296 297 299 302 302 302 302 301 301
290 291 291 293 294 295 293 292 291 291 291 291 292 291 292 292 292 292 290 290 289 289 290 291 291 292 293 294 294 294 295 296 297 298 299 301 301 301
289 290 292 293 295 295 293 292 291 291 290 289 289 289 290 289 292 291 291 290 289 290 290 291 291 291 292 292 293 293 294 294 295 295 296 298 298 300
289 289 290 293 294 294 293 292 292 292 290 289 289 288 288 288 289 288 289 289 288 289 290 290 290 290 291 292 292 292 292 291 292 292 292 293 295 297
289 289 290 292 293 292 292 292 293 291 289 289 289 289 289 288 288 288 288 287 288 288 288 288 288 288 288 289 289 289 289 290 290 290 290 290 290 292
289 288 290 291 291 290 291 292 291 289 288 289 288 289 289 289 289 288 288 288 287 287 287 287 287 288 288 288 288 288 288 288 288 289 289 289 290 290
289 289 289 288 288 287 288 288 287 288 289 289 288 288 288 288 289 289 289 288 288 288 288 288 287 287 287 287 288 288 288 289 288 288 289 289 289 289
289 287 287 287 287 287 286 286 286 287 287 288 288 287 287 288 288 289 289 289 289 290 290 290 289 289 288 288 288 288 288 289 289 289 288 288 288 288
289 288 287 287 287 287 286 286 286 286 286 286 287 287 287 287 288 288 289 290 290 290 290 290 290 289 289 288 288 288 289 289 290 289 289 289 289 288
288 287 287 287 287 287 287 286 286 286 285 285 286 286 287 287 287 288 288 288 288 289 289 289 289 288 289 289 289 289 289 289 289 289 289 288 288 288
288 287 287 287 287 287 287 287 286 286 285 285 285 286 286 287 287 287 287 288 288 288 288 288 288 288 288 289 289 289 290 290 289 289 289 289 288 289
287 287 286 287 287 286 287 287 287 286 286 286 286 286 286 286 286 287 287 287 287 288 287 287 287 287 288 289 289 289 289 289 289 289 289 289 289 289
286 286 286 286 286 286 286 286 286 286 286 286 285 285 285 285 286 286 286 286 287 286 287 287 287 287 287 288 288 289 289 289 288 288 288 289 289 289
286 285 285 285 285 286 286 286 286 286 286 285 285 285 285 285 285 285 286 286 286 286 286 286 286 287 288 288 289 289 289 288 288 287 287 288 289 290
284 285 286 285 285 286 286 286 286 285 285 285 285 285 285 285 285 285 285 285 285 286 286 286 287 287 288 288 289 289 288 288 288 288 288 287 287 287

GFSNE_925_thetae_282.txt.gz
Theta_e
293 293 294 293 294 295 297 297 298 299 299 296 296 296 298 299 301 303 306 308 308 309 307 303 302 304 307 310 311 313 315 317 317 315 317 320 324 322
293 293 294 295 294 296 297 297 297 297 299 297 297 297 297 298 299 301 302 304 306 306 305 304 303 303 301 305 308 311 313 315 316 317 318 319 318 318
292 293 293 294 296 296 296 297 298 297 297 297 297 297 297 297 297 298 300 302 303 304 303 303 303 302 302 305 306 309 309 309 308 307 310 310 309 312
293 293 294 294 294 295 296 295 297 298 297 296 296 296 297 296 297 297 298 299 301 300 301 301 300 302 302 304 305 305 305 307 308 307 307 306 308 306
293 293 294 295 295 295 295 296 296 297 298 296 296 296 295 296 296 297 297 297 298 297 298 299 300 299 300 302 304 305 304 303 305 304 304 304 305 305
293 293 293 294 296 296 295 295 295 295 297 297 297 297 296 296 296 295 295 295 295 295 296 297 298 298 299 299 301 303 304 303 302 301 301 300 300 301
293 293 293 294 296 296 295 294 294 295 295 295 295 296 295 294 294 293 293 294 295 293 294 296 296 298 299 299 299 299 302 303 303 302 300 298 297 297
293 293 293 294 295 295 294 294 293 293 294 294 292 292 293 292 292 292 292 292 292 293 292 293 294 296 297 298 297 297 298 300 303 303 302 301 300 298
292 292 293 294 295 295 293 293 292 293 292 293 292 292 291 291 291 291 290 290 291 290 291 292 293 294 295 296 296 295 296 297 299 302 302 302 302 302
292 292 293 294 295 295 295 294 293 292 292 291 292 292 292 291 292 291 291 291 290 291 292 292 292 292 293 294 295 295 294 295 295 297 299 300 301 302
292 291 292 294 295 295 294 294 293 293 292 290 289 290 290 290 291 292 291 291 291 291 291 292 292 292 293 294 294 293 293 293 294 295 296 296 297 298
292 291 291 293 294 294 294 294 293 292 292 291 291 290 290 290 289 290 291 290 290 290 291 290 291 290 292 292 293 292 292 293 292 292 292 292 293 294
292 291 291 292 292 292 292 293 293 293 291 291 292 291 290 289 289 289 289 289 289 289 290 289 289 289 289 290 290 290 290 291 291 291 291 291 291 291
292 291 291 291 290 290 290 291 290 290 291 292 292 292 292 292 291 290 289 289 289 288 289 288 288 289 289 289 289 289 289 289 289 290 290 291 291 291
292 290 289 289 289 289 289 288 289 290 290 291 291 291 291 291 291 291 291 290 290 290 290 289 288 288 288 288 289 289 289 289 289 290 290 291 291 291
292 290 289 289 289 289 289 288 288 288 288 289 290 290 290 290 291 291 291 291 290 291 292 291 291 290 290 290 289 289 289 290 290 290 290 290 290 289
291 290 290 290 290 290 289 289 288 288 288 288 289 290 290 290 290 290 290 290 291 291 291 291 291 290 290 289 289 289 289 289 290 291 290 290 289 289
291 290 290 290 290 290 290 290 289 288 288 288 288 289 289 289 289 290 290 290 290 290 290 290 290 290 290 290 289 290 290 290 290 290 290 289 289 289
290 290 290 290 290 289 289 290 290 289 288 288 288 288 288 288 288 289 289 289 289 290 290 290 289 290 291 291 290 290 290 291 290 290 289 289 289 289
289 289 289 289 289 289 289 289 289 290 289 288 288 288 288 288 288 288 289 289 289 289 289 289 289 289 289 290 289 289 289 290 290 290 290 289 289 289
288 288 288 288 288 288 289 289 289 289 288 288 288 287 287 288 288 288 288 288 288 289 289 289 288 288 288 288 288 290 291 290 289 289 289 289 289 289
287 287 287 288 288 288 288 288 289 289 288 288 288 288 288 287 288 288 288 288 288 288 288 288 289 289 289 289 289 290 290 289 289 289 289 288 288 289
285 286 286 287 287 287 288 288 288 288 288 287 288 288 287 287 287 287 287 287 287 287 288 289 289 289 289 290 289 289 289 289 288 288 288 289 288 287

GFSNE_925_thetae_288.txt.gz
Theta_e
295 294 294 294 294 294 296 296 297 297 297 297 298 297 297 297 299 299 301 303 306 307 307 307 305 308 310 312 310 311 315 317 318 319 318 314 314 320
294 294 294 294 294 296 296 296 296 296 298 297 297 297 297 297 298 299 300 300 303 303 305 306 305 305 308 309 311 312 313 315 316 317 320 321 324 324
294 294 294 294 294 295 296 296 295 296 296 296 296 296 296 297 297 297 298 298 299 302 303 303 303 303 304 305 305 307 309 309 310 312 314 315 315 313
295 294 294 294 295 295 296 295 295 295 295 295 297 297 296 296 296 296 296 297 297 298 300 301 301 301 301 303 303 303 305 305 308 307 310 309 309 309
295 295 294 294 295 294 296 295 294 294 294 296 295 295 295 294 294 293 293 294 294 295 296 298 300 300 300 300 303 303 302 303 304 304 306 307 307 306
295 295 294 294 294 296 296 295 293 293 294 294 293 292 293 292 292 292 292 292 293 293 292 295 296 298 300 301 300 301 303 303 302 302 301 302 303 302
295 294 293 295 295 297 296 295 294 293 292 293 293 292 292 291 291 290 290 290 293 291 291 293 295 296 297 298 298 298 298 301 303 303 302 300 298 297
295 294 293 293 295 295 297 296 295 295 294 293 293 293 292 291 290 292 289 289 289 291 291 291 292 293 295 296 297 296 296 297 298 301 303 303 302 301
295 294 292 293 294 295 295 294 293 294 294 292 291 290 291 291 291 290 289 289 290 291 291 291 291 291 292 294 295 296 295 295 296 297 299 301 302 302
295 293 292 292 294 295 294 293 293 293 293 292 291 290 290 290 290 290 290 290 290 290 290 290 291 290 291 293 294 294 293 294 293 294 296 297 298 300
295 293 292 292 294 294 293 293 293 293 293 293 292 292 291 291 290 290 290 290 290 290 291 290 290 290 292 292 292 292 292 292 293 293 293 294 294 295
294 294 292 293 293 293 292 292 293 292 292 292 292 292 292 291 290 289 289 289 289 290 291 289 289 289 289 291 291 290 290 290 291 291 292 292 292 292
294 293 292 292 292 292 292 291 291 292 292 292 293 293 293 292 292 290 289 289 288 288 289 289 289 288 289 289 289 289 289 289 289 290 290 290 291 292
294 293 293 291 292 292 291 291 291 291 291 291 292 292 292 292 292 292 291 290 289 289 289 289 288 288 288 288 288 288 288 289 289 289 290 290 290 291
294 293 293 291 291 290 290 291 290 289 289 290 290 291 290 290 291 292 292 292 291 291 291 290 291 290 290 289 289 289 290 289 289 289 289 289 290 290
293 292 292 292 292 292 291 290 290 289 289 289 289 290 290 290 291 291 291 291 291 291 291 291 291 291 291 290 290 290 289 289 289 289 290 290 290 290
292 291 291 291 291 291 291 291 290 290 289 289 289 289 289 289 289 289 290 290 290 290 290 290 290 290 291 291 290 290 290 290 290 290 290 290 290 289
290 291 291 291 291 291 290 290 291 291 290 289 289 289 289 289 289 289 289 289 289 289 289 289 289 289 289 289 290 290 290 290 290 290 290 290 290 289
290 290 290 290 290 290 290 290 290 290 290 289 289 289 288 288 288 289 289 289 289 289 289 289 289 289 284 287 288 289 288 289 289 289 290 289 289 288
290 290 290 290 290 290 290 290 290 290 290 289 289 288 288 288 288 288 288 288 288 288 288 288 289 288 289 288 288 288 289 289 290 290 289 288 288 289
290 289 289 289 289 289 289 289 289 289 290 289 288 288 288 288 288 288 288 288 288 288 288 288 288 289 289 289 288 288 289 289 289 288 288 288 288 289
289 288 288 288 288 288 288 288 289 289 289 288 288 288 289 288 288 287 287 288 287 287 287 287 288 289 289 289 288 288 289 289 287 287 288 288 288 287
287 286 287 287 288 288 288 288 288 288 287 287 286 288 288 288 287 287 287 287 287 287 287 287 288 288 288 288 288 288 288 287 287 287 288 288 288 288

GFSNE_925_thetae_291.txt.gz
Theta_e
295 294 294 294 294 295 295 296 295 296 295 296 295 296 296 297 299 298 299 301 303 305 307 304 307 308 310 313 314 316 318 318 317 320 316 312 315 316
295 294 294 294 294 294 295 296 295 295 296 295 295 296 296 296 296 296 297 299 301 303 304 305 305 303 306 307 311 312 314 316 317 318 320 320 317 322
296 294 294 294 294 295 295 295 294 294 295 294 296 296 295 295 294 294 296 296 297 301 302 302 303 305 304 304 306 309 310 310 312 312 314 316 316 316
297 295 295 294 294 294 296 295 293 293 294 294 294 293 294 292 292 292 292 293 294 295 299 301 302 303 303 303 303 304 305 306 310 310 310 310 311 312
296 295 294 294 294 295 296 295 294 293 293 293 293 292 292 291 291 291 290 292 293 291 294 297 299 302 302 301 303 303 303 303 303 306 307 307 307 307
297 295 294 293 295 295 297 296 295 293 293 292 293 292 291 291 290 290 289 291 292 290 293 293 296 300 300 299 299 300 302 303 302 301 300 301 302 303
297 295 293 293 295 296 297 296 295 295 294 293 293 292 293 291 289 290 289 289 290 290 291 292 292 295 297 297 297 297 298 300 302 303 302 300 298 298
297 295 293 292 293 295 296 296 295 295 295 293 292 290 290 290 290 289 289 289 288 289 290 291 291 291 293 295 296 296 296 296 297 300 302 303 302 301
296 294 293 292 292 295 294 294 293 293 293 292 291 290 290 290 290 290 289 289 289 290 290 290 290 290 292 295 295 294 295 295 295 297 297 299 301 301
296 294 293 292 292 295 294 292 293 293 293 292 292 292 292 291 290 290 290 290 290 290 290 290 289 290 292 293 293 292 293 293 294 294 294 295 296 297
294 294 292 292 293 294 293 291 293 293 292 293 292 292 292 291 291 289 289 289 289 290 290 290 289 289 291 291 290 290 290 291 291 293 293 293 293 293
295 294 292 293 294 293 292 291 291 291 291 292 292 292 292 291 291 290 289 288 288 289 289 289 289 288 288 289 289 289 288 289 289 290 291 291 292 292
295 293 292 292 293 292 292 290 291 292 291 291 291 293 292 292 292 291 290 290 289 289 289 289 289 288 288 288 288 288 288 289 289 290 290 290 291 292
296 293 293 292 292 292 292 291 291 289 289 290 290 290 290 290 290 291 291 291 291 290 290 289 289 289 288 288 288 289 289 289 289 289 289 289 289 290
295 294 294 293 291 290 290 291 290 289 289 289 289 290 290 290 290 290 291 291 291 291 290 290 290 290 290 289 289 290 289 289 289 289 289 290 290 290
294 293 292 292 292 292 292 290 290 289 289 289 289 289 289 289 289 289 290 290 290 289 290 290 290 290 290 290 290 290 290 289 289 289 289 290 289 289
292 290 291 291 291 290 290 291 291 291 289 289 289 289 288 289 289 289 289 289 289 289 289 289 289 289 289 289 289 289 289 289 290 290 290 290 289 289
290 290 291 290 290 290 290 290 290 291 290 289 289 288 288 288 289 288 288 288 288 288 288 289 289 288 288 288 289 288 289 289 289 289 289 289 288 288
290 290 290 290 290 290 290 289 290 290 290 289 289 288 288 288 288 288 288 288 288 288 288 288 288 288 286 288 288 288 289 289 289 289 288 288 288 288
289 289 289 289 289 289 289 289 289 289 289 289 288 288 288 288 288 287 287 288 288 287 287 287 288 288 288 288 288 288 289 289 289 289 288 287 288 288
290 289 289 289 289 289 289 289 289 289 289 289 288 288 288 288 287 287 287 287 287 287 287 287 288 289 289 288 288 288 288 289 287 287 287 287 287 288
289 289 289 288 288 288 288 288 288 288 288 288 288 288 288 288 287 286 287 287 287 287 287 287 288 288 288 288 288 288 288 287 287 287 288 288 288 287
289 288 288 288 288 288 288 288 288 287 287 287 287 288 288 287 286 286 287 286 287 287 286 286 287 287 287 287 287 287 287 286 286 287 288 287 287 287

GFSNE_925_thetae_297.txt.gz
Theta_e
296 296 296 295 293 293 293 294 294 295 294 293 293 293 293 293 291 292 291 294 296 300 302 304 305 306 306 306 308 312 317 318 317 319 321 324 325 330
295 296 297 295 294 293 293 293 295 294 294 293 293 292 292 291 291 290 290 292 292 298 300 302 304 305 305 304 306 307 308 318 319 318 322 324 327 328
296 295 296 295 294 293 293 294 295 295 293 293 293 292 291 291 290 290 290 291 291 295 298 300 303 303 304 304 302 305 305 306 309 311 319 318 323 326
296 293 296 295 294 293 293 294 294 296 294 293 293 292 291 291 290 289 289 290 291 292 295 298 299 301 302 302 302 302 303 303 304 306 307 311 315 314
294 294 296 295 294 292 294 294 295 296 294 294 293 292 290 290 290 289 289 289 289 291 292 293 295 298 299 300 300 301 303 302 301 302 303 304 306 309
295 295 296 295 293 293 295 296 295 295 294 294 292 290 290 290 289 289 289 289 289 290 290 291 295 296 297 297 298 299 301 302 304 300 300 301 302 303
295 295 296 296 294 294 295 296 295 294 293 292 291 290 290 290 290 289 289 289 289 289 289 290 294 295 295 295 296 297 298 299 300 302 302 301 301 301
296 294 295 295 293 293 295 296 295 294 294 292 291 291 291 290 290 289 290 289 289 289 289 290 293 293 293 294 294 295 295 297 297 298 299 300 301 302
296 294 295 295 293 291 293 294 292 292 294 293 291 291 291 291 290 289 289 289 289 289 289 290 291 290 290 291 292 292 293 294 295 296 296 296 296 297
295 294 295 294 293 292 294 293 291 291 291 292 293 292 292 291 291 289 289 289 289 289 289 288 289 290 289 289 289 290 292 292 293 294 294 294 294 293
295 294 294 294 293 293 294 293 290 291 291 291 293 293 293 293 292 290 289 288 288 289 288 288 288 289 289 289 289 289 289 291 292 293 293 293 292 291
295 294 294 294 293 294 294 292 290 291 291 290 291 291 292 291 291 291 290 289 288 288 289 289 288 288 288 289 289 289 289 289 289 289 291 291 291 291
295 294 294 293 293 294 294 293 291 291 289 289 290 290 290 290 290 290 290 290 289 289 289 289 289 289 288 288 289 289 289 289 289 289 289 290 290 291
296 295 295 294 293 293 293 292 293 291 289 289 289 290 289 290 290 290 290 290 290 290 289 289 289 289 288 289 288 289 289 289 289 289 289 289 289 289
297 296 296 294 294 293 291 292 291 289 289 288 288 288 288 288 288 288 289 289 289 289 289 289 289 289 289 288 288 288 288 289 289 289 289 289 288 288
298 297 295 294 294 292 290 292 290 289 289 288 288 288 288 288 288 288 288 288 288 288 288 288 288 288 288 288 288 288 288 288 289 289 289 288 288 288
297 295 293 293 292 292 291 291 290 290 290 288 288 288 288 288 288 288 288 288 287 287 287 288 288 288 288 288 288 288 288 288 288 288 288 287 287 287
295 293 292 291 289 290 290 290 290 290 290 289 288 288 287 287 288 287 287 287 287 287 287 287 288 287 287 287 288 288 288 288 288 288 287 287 287 288
294 293 291 289 290 290 289 289 290 290 290 289 288 287 287 287 287 287 287 287 287 286 286 286 287 287 283 286 287 288 288 288 288 287 287 287 287 288
295 293 290 289 289 289 289 289 289 289 289 289 288 288 288 287 287 287 286 286 286 286 286 286 287 287 287 283 287 287 288 287 287 287 287 287 287 288
294 292 291 289 289 289 290 289 289 289 289 288 288 288 288 287 287 286 286 287 287 286 286 286 287 287 288 287 287 287 287 286 286 286 287 287 287 287
293 292 291 289 289 289 289 289 289 289 288 288 288 288 288 288 287 286 286 286 286 286 286 286 287 287 287 287 286 286 286 286 286 286 287 287 288 286
293 291 290 289 289 289 289 289 288 288 288 288 288 288 288 287 286 286 285 286 285 286 286 286 286 286 287 286 286 286 285 285 285 286 286 286 286 285